[Date Prev][Date Next][Thread Prev][Thread Next] - [Date Index][Thread Index][Author Index]
2 Line ISS Keps 11-22
- Subject: [sarex] 2 Line ISS Keps 11-22
- From: "Dave Larsen PhD" <doc@xxxxxxxxxxx>
- Date: Sat, 22 Nov 2003 03:48:54 -0800
ISS
1 25544U 98067A 03326.14694066 .00035485 00000-0 36574-3 0 8004
2 25544 51.6296 303.5537 0005982 162.4712 255.4051 15.64451672285697
----
Via the sarex mailing list at AMSAT.ORG courtesy of AMSAT-NA.
To unsubscribe, send "unsubscribe sarex" to Majordomo@amsat.org
AMSAT Home